Wind_Speed
9 12 11 11 13 13 13 12 12 10 10 10 11 11 11 11 11 11 12 12 11 11 11 10 10 10 9 9 9 9 11 12 13 14 14 16 17 17 17 17 16 15 15 14 14 13 13 13 13 14 14 14 16 17 17 17 17 18 18 18 18 18 19 19 20 20 21 22 23 24 25 25 26 26 27 28 27 25 24 23 23 23 21 20 19
11 13 12 11 12 12 12 11 10 10 10 10 11 12 12 12 11 12 13 13 12 12 11 11 11 10 10 9 9 9 10 11 13 14 15 16 17 18 17 16 16 15 15 14 14 14 13 13 14 14 14 14 15 16 17 17 17 17 18 18 18 19 19 20 20 20 21 22 23 24 25 26 26 26 27 28 29 29 27 25 24 24 24 23 21
13 13 13 12 12 12 12 10 9 9 9 10 11 12 12 12 12 13 14 14 13 13 12 11 11 11 10 9 9 9 10 11 12 13 15 16 18 18 18 17 16 16 15 15 15 15 14 14 15 14 14 14 15 16 17 16 17 17 17 18 18 19 19 20 20 20 21 22 23 24 25 26 26 26 27 28 29 30 29 27 25 25 25 25 23
13 12 13 12 12 12 11 10 9 9 10 11 12 13 13 13 13 14 15 15 14 13 13 12 11 11 10 9 9 8 9 10 11 13 14 16 17 19 19 18 17 16 16 16 16 16 15 15 16 15 15 15 15 16 16 16 16 16 17 17 18 18 19 20 20 20 20 22 22 23 26 26 26 26 26 27 27 29 30 29 27 26 25 25 24
12 11 12 13 12 11 10 9 9 10 10 11 12 13 13 13 13 14 15 15 15 14 13 12 11 10 10 9 8 8 8 9 10 11 13 15 16 18 20 20 19 18 17 17 17 16 16 16 16 15 15 15 14 15 16 16 16 16 16 16 17 17 18 19 19 19 19 21 22 23 26 25 25 25 26 26 26 27 28 29 29 28 26 25 24
10 10 11 12 11 10 10 9 10 10 11 12 13 13 13 13 13 14 15 15 15 14 13 12 11 10 9 9 8 8 8 9 10 10 11 13 15 17 19 21 20 19 18 18 18 17 17 17 17 16 16 15 14 15 15 15 16 15 15 15 15 16 16 17 17 18 19 21 22 24 25 24 24 24 25 25 25 26 27 28 29 29 28 26 24
10 10 11 11 11 10 10 10 10 11 12 13 13 13 13 13 13 14 14 15 15 14 13 12 10 9 9 9 9 8 8 9 9 10 10 12 14 16 18 20 21 20 19 19 18 18 17 17 18 17 17 16 15 14 14 15 15 15 15 14 14 14 15 15 14 15 18 20 22 24 23 22 23 23 23 24 25 25 26 27 27 28 29 29 27
11 10 10 10 10 10 10 10 11 12 13 12 12 12 12 13 13 13 13 14 14 13 12 11 10 9 9 8 8 8 8 8 9 9 9 11 13 15 18 19 21 21 20 19 19 18 18 18 19 18 17 17 15 14 14 14 14 14 14 13 13 12 13 12 12 13 15 19 22 22 21 21 22 21 22 23 24 24 25 26 26 27 28 29 28
11 10 9 9 10 10 10 11 12 12 13 12 12 12 12 12 12 13 13 14 14 12 12 11 9 9 8 8 8 8 9 9 9 9 9 10 12 14 17 19 21 22 21 20 19 19 19 18 19 19 18 18 16 15 14 13 13 14 14 13 12 11 11 11 11 12 15 18 20 19 18 19 19 20 21 21 22 23 24 25 25 26 27 27 28
10 10 9 9 9 9 11 12 13 13 12 12 12 11 11 11 12 12 12 13 13 12 12 10 9 9 8 8 8 9 10 10 10 9 9 10 11 13 15 18 20 21 22 21 20 20 20 19 20 20 19 18 17 16 14 13 13 13 12 12 11 10 10 9 9 11 14 17 17 16 17 17 18 18 19 19 20 22 23 24 24 25 25 26 26
10 10 9 8 9 10 12 12 13 12 12 12 11 10 10 11 12 12 12 13 12 12 11 10 10 9 8 8 8 9 9 10 10 10 9 8 10 11 13 16 19 20 22 22 21 21 21 21 21 21 20 19 18 17 15 13 13 12 11 11 10 10 9 9 8 10 14 15 14 15 16 16 16 17 17 18 19 20 22 22 23 23 24 24 25
8 8 8 9 10 11 11 12 12 12 12 10 10 10 10 11 11 11 12 12 12 12 11 10 10 8 7 8 8 8 9 9 9 9 8 7 8 10 11 14 17 20 21 22 22 22 23 22 22 22 22 20 19 18 16 14 13 12 11 10 10 9 9 9 8 10 13 13 13 14 14 15 15 15 16 16 18 19 20 20 21 21 22 23 23
6 7 9 9 10 11 12 12 12 12 10 9 8 9 9 9 10 10 10 11 11 11 10 11 10 9 8 8 8 8 8 8 7 7 7 7 7 8 10 11 15 18 20 22 23 23 23 23 23 24 23 22 20 19 18 15 14 12 12 11 10 9 9 9 8 9 11 12 12 13 13 14 14 14 14 15 16 17 17 18 19 20 20 21 22
4 6 9 9 10 11 12 13 12 11 9 8 7 8 8 8 9 9 10 10 10 10 10 11 10 10 10 9 9 8 9 7 6 6 6 6 5 6 8 9 11 15 19 21 22 23 23 23 23 24 23 23 22 20 19 17 15 13 12 11 11 10 9 8 7 8 10 11 11 11 12 13 13 13 13 14 15 15 16 17 17 18 18 19 20
3 6 7 8 11 12 13 13 12 10 8 8 7 7 7 8 8 9 9 9 10 10 11 11 11 10 10 11 10 9 9 7 6 6 6 5 4 6 7 7 9 11 16 20 22 23 23 23 23 24 24 24 23 21 20 18 17 15 14 13 12 11 10 9 8 9 10 10 10 9 10 10 10 11 11 12 12 13 14 15 16 16 17 17 18
5 6 7 10 12 13 13 12 11 10 9 8 7 6 7 8 8 10 11 11 10 11 11 11 11 11 11 11 11 10 8 7 6 6 5 5 5 6 6 7 8 9 13 17 21 23 23 24 24 25 25 25 24 23 22 20 18 17 15 14 13 12 12 10 9 9 10 10 9 8 8 7 7 7 8 8 9 11 12 13 14 14 15 16 16
7 7 9 12 13 14 13 11 11 10 9 7 4 5 7 7 8 10 12 13 12 11 10 10 10 11 10 10 11 9 8 7 6 6 6 6 6 6 6 7 7 8 10 13 17 21 23 24 24 25 26 26 25 25 24 22 21 19 18 16 15 14 13 12 12 10 11 11 10 7 6 5 4 3 4 4 5 6 8 10 11 12 13 14 14
9 10 12 14 14 14 12 11 12 12 10 6 5 6 8 7 8 11 13 14 15 14 12 12 12 11 11 10 9 8 8 7 7 7 7 7 7 6 6 6 6 7 7 9 13 17 21 23 24 25 26 26 26 26 25 24 23 22 20 18 17 16 15 14 13 13 14 12 10 8 6 5 4 2 0 1 3 4 5 7 8 9 11 12 13
11 12 12 13 13 12 11 11 13 13 8 6 7 7 7 7 9 10 12 14 15 16 16 15 14 13 12 12 11 10 9 10 10 9 8 8 7 7 6 5 5 6 7 7 9 13 17 21 23 25 26 26 26 27 26 25 25 23 22 21 19 18 17 16 15 16 16 13 11 9 8 6 5 4 4 3 4 4 5 6 7 8 8 9 10
12 12 12 12 12 12 12 11 11 9 5 5 7 5 6 7 9 10 12 15 15 16 16 15 15 15 14 13 12 11 10 9 7 6 7 7 7 7 6 6 6 7 8 7 8 10 14 18 21 24 25 25 26 26 27 26 25 24 23 22 21 20 20 18 18 19 17 15 13 11 10 9 7 6 6 6 6 6 6 7 8 8 8 8 8
13 13 12 12 13 14 11 10 8 6 7 6 5 4 6 8 9 10 13 15 15 15 15 15 15 14 12 12 10 9 8 5 3 2 2 3 4 6 6 7 7 8 9 9 9 9 11 15 19 22 24 25 25 25 26 26 26 25 24 23 23 21 21 20 21 22 19 17 15 14 12 11 10 9 9 9 8 9 8 8 8 9 9 8 8
13 12 12 13 15 15 12 10 6 5 6 4 4 5 6 8 9 11 14 15 14 14 15 14 13 12 12 11 10 9 8 6 6 5 4 4 4 4 5 6 7 8 9 9 10 10 10 12 15 19 22 24 24 24 24 25 25 25 25 24 23 23 22 22 23 23 20 18 18 17 15 14 13 12 12 11 11 11 10 10 10 10 10 9 7
12 11 12 15 14 11 10 8 4 2 1 1 4 6 6 8 9 11 12 13 14 14 14 13 13 12 11 11 10 10 10 9 10 9 7 5 4 4 5 6 7 8 8 9 9 10 11 12 13 15 18 21 22 22 23 23 25 25 26 25 24 24 23 22 24 24 22 20 20 20 18 18 16 15 14 14 13 13 12 12 12 11 11 10 8
10 10 13 15 12 7 6 7 6 3 3 4 5 6 7 8 9 10 11 13 14 14 14 13 13 12 12 12 12 13 13 12 12 11 9 6 6 5 5 6 7 8 8 9 9 10 12 13 13 13 15 18 20 21 22 23 24 25 25 25 24 24 23 23 25 26 23 21 21 22 21 20 19 17 17 16 15 14 14 14 13 12 11 10 9
11 12 14 13 11 8 7 7 6 3 5 5 6 7 7 8 9 10 11 13 13 13 13 13 13 13 14 14 13 14 14 13 13 10 9 8 8 6 6 6 6 7 8 9 10 10 11 13 14 14 14 15 18 20 21 23 24 24 24 24 24 23 23 24 26 28 25 22 23 24 22 22 21 20 19 19 18 16 15 15 14 13 12 11 10
13 14 12 11 11 8 4 2 3 4 6 6 6 7 7 8 8 8 9 11 11 11 12 13 14 15 13 12 12 11 10 11 11 9 8 9 9 8 7 7 6 7 10 11 11 10 10 10 11 13 15 15 16 18 19 22 22 22 23 23 23 23 23 24 26 27 25 23 24 24 24 23 23 22 21 21 20 18 17 15 15 15 14 12 11
15 14 12 11 11 8 3 4 6 6 7 6 6 7 7 7 7 5 7 8 9 10 11 11 11 11 10 9 10 10 8 8 9 8 9 10 9 9 10 11 10 10 12 12 12 11 10 9 7 8 13 15 15 15 16 19 20 21 23 23 23 23 23 24 26 27 25 23 23 24 24 24 24 23 22 22 21 20 18 17 16 16 15 14 13
14 14 13 11 10 9 7 5 6 8 7 6 6 7 6 6 5 4 5 6 8 10 10 9 8 8 8 8 9 10 8 7 7 9 10 10 10 10 10 11 11 13 14 13 12 11 10 9 5 5 10 13 15 14 14 18 19 21 22 22 22 22 24 24 26 26 24 24 25 25 25 24 24 23 23 23 22 21 20 18 18 17 16 15 15
15 14 13 11 11 10 8 6 6 7 6 5 6 5 4 6 6 6 7 8 10 10 10 9 8 8 8 8 9 10 9 7 7 9 11 11 10 10 8 8 10 11 11 12 12 11 9 8 5 6 8 10 13 13 14 16 18 20 21 22 22 23 25 24 24 25 23 24 25 24 24 23 23 23 23 23 22 21 20 19 19 18 17 16 16
16 15 12 11 12 9 8 7 7 6 5 5 5 5 5 6 8 8 9 10 10 10 10 10 9 8 8 9 9 8 9 10 10 11 11 11 11 12 11 11 11 11 11 11 12 11 8 7 5 6 8 9 11 12 13 12 15 19 20 21 21 23 27 24 22 22 20 21 22 22 22 22 22 22 22 22 21 21 20 20 19 18 17 16 16
16 15 13 13 12 10 9 8 8 6 5 5 6 5 6 7 8 9 10 10 9 10 10 10 8 7 7 8 7 7 9 11 11 10 10 10 11 12 11 10 10 10 11 11 11 10 7 6 6 7 7 9 10 11 12 10 11 17 19 21 21 25 28 22 19 18 16 18 20 21 20 19 19 19 20 20 21 21 21 20 19 18 18 17 16
15 14 14 14 12 11 9 7 7 6 5 6 7 6 6 7 8 9 9 9 8 9 9 7 6 6 7 7 7 7 7 7 7 7 8 8 9 10 9 9 9 8 9 9 9 8 6 7 8 8 7 8 7 8 11 10 9 13 17 18 19 24 24 13 10 13 11 12 15 17 17 17 17 17 18 18 19 20 20 19 19 18 17 17 17
14 14 15 14 14 11 9 7 8 7 6 6 7 7 6 7 8 8 8 8 7 7 6 5 5 6 8 8 7 6 6 5 5 6 7 7 8 9 9 9 8 7 7 8 7 7 6 7 9 9 8 8 8 8 9 9 10 12 13 15 16 20 17 6 5 7 8 9 9 11 12 14 14 13 15 15 16 17 17 18 18 18 17 18 18
13 14 15 15 15 11 8 9 10 9 7 6 7 8 8 8 8 7 7 8 7 6 6 6 6 7 8 8 7 7 6 5 5 5 5 6 8 9 8 7 7 7 7 7 7 6 7 7 8 9 9 10 10 8 8 9 10 12 14 15 15 16 12 6 7 7 7 8 8 9 10 10 10 10 11 11 12 13 14 15 16 17 17 17 17
12 13 16 16 14 9 9 11 11 10 8 8 9 9 8 8 7 6 7 6 5 5 5 5 6 6 6 6 6 6 6 6 5 6 5 6 6 6 6 6 7 7 7 8 7 7 7 8 9 10 10 10 10 8 9 10 11 12 13 12 11 13 10 8 9 7 6 8 9 9 9 8 8 8 9 8 9 10 11 13 14 15 16 16 17
13 14 18 17 13 10 12 13 14 13 9 9 10 10 8 7 7 6 6 5 4 3 3 3 5 4 4 4 4 5 6 5 5 5 6 6 4 4 5 6 6 6 6 7 7 8 9 9 10 11 12 11 10 9 10 10 11 11 12 11 13 13 11 9 9 7 6 8 9 8 8 7 7 7 8 8 8 8 9 9 10 12 14 15 16
15 16 18 17 14 13 13 14 16 15 11 11 12 11 9 8 8 7 6 5 4 3 1 0 1 1 2 2 3 5 5 4 4 4 5 4 3 4 6 5 5 5 5 6 7 9 10 9 9 11 13 12 11 11 10 11 12 9 11 14 13 10 10 10 9 8 8 8 8 8 7 8 8 8 9 8 6 6 7 8 9 10 11 12 14
17 17 17 16 15 14 14 15 17 16 13 13 13 12 11 10 9 8 7 6 6 6 5 5 5 5 5 4 1 2 2 3 3 2 2 2 1 3 5 4 3 4 5 6 7 8 10 10 9 10 12 11 11 11 11 12 12 9 11 14 10 6 8 9 8 8 8 7 7 8 8 8 10 9 8 6 5 6 7 7 8 8 9 10 12
17 17 18 17 16 15 14 16 18 18 15 14 14 13 12 11 10 10 9 9 9 8 8 8 9 9 9 7 5 5 3 1 1 2 1 0 1 3 4 4 4 4 4 5 6 8 9 10 10 10 10 10 12 12 11 12 11 10 11 12 8 5 7 10 7 7 9 8 8 9 9 9 10 9 6 4 5 7 8 7 8 8 8 8 10
18 18 18 18 17 16 15 17 20 19 17 16 15 15 14 13 12 10 10 10 10 10 10 10 11 11 11 10 9 8 6 5 4 2 2 2 1 2 3 3 3 4 4 5 6 8 8 9 9 10 11 11 12 12 11 11 9 10 11 11 6 5 7 10 10 8 8 8 9 9 9 10 9 7 6 6 7 8 8 8 8 8 8 8 9
19 19 19 19 19 18 18 21 21 19 18 17 17 16 15 14 13 11 11 10 10 10 10 11 12 13 13 13 12 11 9 8 6 4 4 4 1 2 3 4 3 3 4 4 6 8 9 10 10 10 11 11 11 11 10 10 9 9 11 9 6 5 8 9 8 9 9 6 8 8 8 9 8 6 7 7 7 7 7 8 8 9 9 8 9
19 19 20 21 20 20 21 22 22 20 19 19 19 18 16 14 14 12 10 9 9 9 10 11 12 13 14 15 14 14 12 10 8 7 7 5 2 2 4 4 3 3 5 5 6 8 9 10 10 10 10 10 10 10 9 10 9 9 12 10 7 7 9 9 7 7 9 7 8 8 7 8 6 5 7 8 7 6 6 8 8 8 9 8 8
19 19 20 21 20 20 22 23 23 23 22 21 21 19 17 16 14 11 9 8 7 8 8 9 10 11 13 14 14 14 13 12 10 9 8 7 5 1 1 3 3 3 4 5 5 7 8 9 9 10 10 10 10 10 9 10 9 9 12 11 8 8 9 8 7 7 8 8 9 7 5 5 4 4 6 7 7 6 6 7 7 6 8 8 8
20 20 21 21 20 19 24 25 24 24 23 21 20 20 18 16 13 10 8 7 6 6 6 6 7 8 9 11 12 12 13 12 12 10 8 7 6 4 2 1 3 3 3 4 5 7 8 7 8 10 10 11 11 11 11 10 9 11 12 9 7 8 7 6 6 6 7 8 9 7 3 4 3 2 3 6 7 6 6 6 5 6 7 7 7
20 21 22 22 21 20 23 25 24 24 22 21 19 19 18 15 11 8 7 6 5 4 4 4 4 5 6 8 9 10 11 12 11 10 8 7 7 5 2 0 2 3 4 4 5 7 8 7 8 9 10 11 11 12 13 12 11 12 10 7 6 6 5 4 5 5 6 8 9 8 3 2 3 3 4 6 6 5 4 4 4 6 6 6 6
19 20 23 23 21 21 22 22 24 23 21 20 19 17 16 15 11 9 8 6 4 3 2 2 3 5 6 7 8 9 9 10 10 9 9 9 8 7 5 2 2 4 6 6 7 8 8 7 8 8 9 11 11 12 13 12 11 11 9 7 6 6 6 5 5 5 6 7 8 7 4 2 1 5 6 6 4 3 2 3 4 5 5 5 7
20 21 23 19 17 19 21 21 22 22 20 20 18 16 15 14 12 9 7 5 3 1 1 2 4 5 6 6 7 8 8 8 8 8 8 8 9 8 7 6 3 2 5 7 9 9 9 9 9 9 9 10 10 10 11 10 10 10 9 8 6 7 8 7 7 7 6 6 8 7 4 3 1 3 5 3 1 2 3 3 4 5 6 6 8
22 22 21 15 11 15 18 18 19 20 20 20 18 16 16 14 12 9 7 5 2 1 2 3 4 5 5 6 7 8 8 8 7 7 7 8 8 8 8 8 5 0 4 6 8 9 9 10 10 9 9 9 10 10 9 9 8 8 9 9 7 7 8 9 8 8 6 6 8 7 5 3 2 2 2 2 1 2 3 3 3 5 7 7 7
23 23 21 13 10 13 16 15 16 19 19 19 18 16 16 15 12 9 7 4 2 2 2 4 5 6 7 8 10 10 9 9 8 8 8 8 8 8 8 8 6 1 4 5 6 7 8 10 10 10 10 10 11 10 9 9 7 6 7 7 8 8 8 9 8 8 8 7 7 6 5 4 4 3 2 1 2 4 4 4 4 5 5 6 6
22 21 20 13 12 16 16 16 16 17 18 17 17 16 15 14 13 11 8 5 3 3 4 5 6 8 9 11 12 11 11 9 10 10 10 9 7 7 6 7 7 2 3 5 6 5 5 8 10 10 10 10 9 7 8 9 7 6 6 5 7 8 7 7 8 9 9 7 6 6 6 5 4 4 3 3 3 3 4 5 4 2 3 4 4
21 18 17 13 12 16 17 17 16 16 17 17 18 18 16 14 13 12 9 7 5 5 5 6 7 9 10 12 12 12 12 11 11 12 12 10 8 6 5 6 6 4 2 5 6 5 5 6 8 9 10 10 9 8 9 9 7 7 6 5 7 8 7 6 8 9 9 8 7 7 7 6 4 4 4 3 3 2 2 3 3 2 2 3 4
Wind_Direction
216 214 211 211 208 208 208 209 213 221 230 238 242 240 235 229 223 213 200 189 181 170 167 161 152 146 140 131 123 117 121 127 134 143 153 162 170 174 171 166 164 163 159 154 147 141 137 134 128 121 116 114 113 110 107 105 101 98 95 93 91 90 88 86 85 84 83 81 79 76 73 70 68 66 65 64 64 64 64 63 64 66 67 69 73
212 209 203 207 205 205 204 207 213 221 230 235 239 238 235 228 220 211 199 191 182 174 172 164 158 151 145 136 127 121 124 129 136 144 153 163 171 176 175 169 167 166 163 158 150 145 143 139 132 126 122 120 119 116 112 109 105 102 100 98 94 92 90 88 87 85 84 82 81 78 75 71 68 66 64 63 62 62 62 62 63 66 67 69 70
201 202 202 203 201 202 201 207 214 222 229 233 238 238 235 227 219 209 199 192 183 179 175 169 161 154 150 141 131 125 125 130 136 145 154 164 171 176 177 174 172 170 167 161 155 151 148 144 138 132 128 126 125 120 116 114 109 106 104 101 97 93 91 89 87 86 85 83 81 80 77 73 70 67 65 63 63 62 62 62 63 65 67 69 69
198 203 205 195 195 197 198 208 213 222 227 232 237 237 235 226 217 207 200 192 185 183 177 172 164 156 153 145 136 129 127 131 137 145 154 163 171 177 179 178 177 174 170 165 161 157 153 147 143 138 134 133 131 126 122 118 113 110 108 104 100 97 94 91 89 87 86 84 83 81 78 75 72 69 67 65 64 64 64 63 63 65 67 69 70
194 200 201 190 191 192 196 206 212 221 226 233 237 237 233 224 216 206 199 192 188 186 181 175 165 158 154 150 143 135 133 135 139 144 152 161 169 178 181 182 180 177 174 170 166 162 158 152 147 143 140 138 137 133 128 123 118 115 112 108 103 100 98 94 91 90 89 87 84 81 78 75 73 71 70 68 66 65 65 65 64 65 66 68 70
183 188 189 185 186 188 195 203 213 222 229 236 238 237 231 222 214 206 200 194 191 188 184 177 169 161 156 155 150 144 142 141 143 145 151 160 168 177 184 186 183 180 178 175 171 167 163 156 152 150 146 144 144 140 134 128 123 120 116 112 108 105 101 97 95 94 90 87 84 80 77 75 73 72 71 70 68 67 66 65 65 65 66 66 68
172 174 180 182 182 188 195 205 218 226 233 238 239 237 230 221 214 209 203 196 193 192 187 179 173 166 161 158 154 150 148 147 145 147 153 160 167 177 185 189 186 183 181 180 176 172 169 162 157 156 152 150 150 147 141 135 130 127 122 117 114 111 106 100 97 95 92 89 84 78 76 75 73 72 72 71 70 68 67 66 65 66 66 65 66
168 172 181 182 185 191 199 212 222 231 236 240 240 235 228 220 215 210 204 198 194 193 188 181 177 170 166 159 155 152 150 149 146 149 157 162 168 176 184 189 189 187 185 183 181 176 174 169 164 162 158 156 155 153 150 145 139 135 130 125 119 113 107 102 101 101 97 89 82 77 76 74 73 72 72 72 71 70 68 67 66 65 66 66 65
169 176 182 186 193 198 206 219 227 235 239 241 238 231 225 217 213 210 203 198 193 189 186 185 180 173 168 162 156 150 146 145 145 149 157 166 170 175 183 189 192 191 189 186 184 181 179 176 170 167 165 162 161 160 159 156 149 143 138 132 126 118 111 107 107 106 98 87 81 79 77 74 72 71 70 70 71 71 70 69 67 65 65 65 65
173 177 185 193 198 206 216 226 233 240 242 242 236 226 220 213 209 205 199 195 190 185 186 187 182 175 171 167 157 149 145 140 141 148 157 166 171 175 181 188 193 194 192 189 187 185 184 182 177 173 171 168 166 167 168 166 159 153 146 139 135 128 121 115 110 109 100 90 86 85 80 76 73 69 67 68 70 70 70 69 68 66 65 65 65
172 173 184 196 203 214 223 231 238 244 245 241 233 224 217 211 206 201 196 191 187 184 185 186 182 181 176 167 157 152 148 142 143 148 154 163 170 175 180 187 194 196 195 192 190 189 188 186 183 179 177 174 172 172 174 174 168 162 154 148 146 140 135 125 123 122 107 97 95 92 85 79 73 68 65 66 67 67 67 68 69 68 67 66 65
164 166 185 201 212 222 229 238 243 246 246 241 232 224 216 209 203 197 192 187 185 182 181 182 181 182 177 169 163 160 154 149 149 147 149 157 167 173 179 187 193 198 198 196 194 192 192 190 187 185 183 181 178 178 179 180 177 171 163 158 155 153 148 138 141 134 113 106 103 96 90 82 76 69 65 64 62 62 63 64 66 67 68 67 66
157 166 198 213 221 230 237 242 246 247 246 239 230 222 216 210 203 197 192 188 184 180 179 183 183 179 177 174 172 171 165 161 155 148 149 152 163 169 177 185 191 198 201 201 199 197 197 194 191 190 188 186 185 184 183 185 184 181 174 170 166 164 161 153 155 143 123 116 109 101 95 87 80 72 65 63 59 58 59 59 60 62 64 66 66
163 180 211 226 232 238 242 245 249 247 242 234 225 220 216 210 206 200 195 191 186 182 183 188 187 182 181 178 174 176 174 171 162 153 152 151 160 167 175 185 190 198 203 204 203 202 201 199 197 195 194 191 191 190 189 189 190 190 185 182 178 174 174 169 165 155 139 125 116 110 101 94 86 76 68 64 60 57 55 54 54 56 57 60 62
204 212 224 234 241 246 247 249 250 246 239 229 215 211 212 210 205 201 198 194 191 189 188 190 188 187 187 181 175 174 173 175 169 157 158 158 159 166 175 186 194 201 205 207 206 204 204 203 201 200 200 197 196 196 195 195 196 196 194 193 189 186 186 186 184 172 158 141 130 121 110 102 95 85 74 67 62 58 54 51 49 49 51 52 55
225 234 243 246 249 251 252 256 251 246 236 218 211 217 216 209 204 202 200 197 197 197 195 194 190 190 190 181 175 172 171 175 169 162 169 171 163 168 176 185 196 205 208 209 209 208 206 206 205 204 204 202 201 200 200 200 201 203 201 200 198 197 195 199 204 193 181 164 148 139 128 117 105 94 81 69 60 57 53 50 48 46 44 45 46
236 241 249 251 253 255 260 264 259 252 234 214 214 232 227 213 211 211 204 202 202 201 202 201 198 196 190 177 171 170 168 169 168 170 176 176 169 169 176 183 192 204 211 212 213 212 210 209 209 209 207 205 205 204 204 203 206 209 208 207 205 205 203 207 213 212 209 185 161 167 161 144 133 106 84 65 49 43 43 42 43 44 43 41 40
243 245 249 254 257 261 266 266 262 249 226 216 224 228 236 234 229 223 209 205 202 198 198 198 200 195 183 172 170 173 170 171 176 179 178 176 173 170 178 185 190 200 211 214 215 216 213 211 211 212 211 209 208 208 208 208 209 212 213 213 211 211 210 211 216 221 222 203 177 191 198 185 193 193 231 357 4 3 11 17 23 30 36 38 38
242 246 249 258 260 261 265 262 254 241 217 211 227 229 237 239 233 225 210 207 206 200 195 191 192 186 174 173 178 180 179 183 183 178 171 170 172 173 184 191 193 201 207 212 215 217 216 214 214 214 215 212 212 212 211 212 213 215 217 218 217 218 217 214 218 224 226 220 203 202 215 220 224 236 256 279 300 315 330 340 351 1 13 24 30
240 248 252 259 262 263 259 244 239 247 250 216 223 240 234 229 225 214 205 207 209 204 196 187 182 179 176 180 186 187 192 195 190 176 159 159 168 174 186 194 199 205 206 211 214 217 217 217 216 216 217 215 215 215 214 215 216 218 220 222 222 222 224 221 223 229 228 228 223 215 223 230 235 245 255 267 280 290 303 315 325 334 345 358 10
239 246 253 262 266 267 257 240 245 259 260 235 229 251 224 214 213 205 204 207 208 202 193 183 176 178 183 188 194 198 206 210 213 208 154 173 186 182 189 197 203 209 209 212 214 217 217 217 218 218 219 218 217 217 216 217 219 221 223 225 226 226 229 228 229 232 230 231 233 229 228 232 237 246 254 262 270 279 287 297 307 315 324 334 346
239 247 256 264 264 265 264 260 266 250 248 252 235 229 206 205 213 212 210 210 207 193 183 178 176 183 192 197 203 209 215 219 224 213 187 212 220 198 199 206 209 212 212 213 215 219 220 218 218 218 219 219 218 219 219 219 220 223 226 227 229 230 232 233 235 236 233 233 235 235 234 235 239 244 250 257 263 271 278 285 292 299 307 316 325
242 256 258 257 259 267 269 264 273 265 233 119 175 186 187 199 210 207 202 203 198 184 180 184 186 193 202 208 210 216 221 223 227 210 182 201 233 222 216 219 219 218 217 217 217 218 222 223 220 218 219 219 218 219 220 220 222 223 227 229 231 232 235 237 240 241 238 236 237 239 240 239 240 243 248 252 257 265 271 276 281 287 293 300 308
249 257 258 260 267 280 278 282 299 275 183 153 157 164 174 180 186 184 180 187 188 184 188 195 198 205 213 215 217 227 233 229 224 208 185 195 224 233 231 229 228 224 221 221 220 219 222 225 225 220 217 219 218 217 219 220 222 224 227 229 232 235 237 239 242 242 241 239 239 241 242 242 243 246 249 252 254 259 266 271 275 279 284 289 295
251 247 256 264 271 278 276 286 299 235 182 174 167 164 169 169 171 173 176 185 192 195 201 210 216 221 224 227 232 237 239 228 213 200 192 202 214 224 236 240 247 244 236 230 225 222 221 221 222 221 216 216 217 216 217 219 220 223 227 230 233 236 237 240 243 244 242 241 242 242 243 245 246 249 250 252 254 256 260 265 269 273 277 280 283
252 250 255 256 257 263 266 252 236 185 156 144 153 165 172 175 177 176 185 197 208 212 216 224 228 232 233 236 237 228 223 214 201 194 204 215 217 221 231 234 248 263 255 244 235 227 225 223 214 215 214 210 214 214 216 220 221 224 227 230 233 235 238 240 244 246 244 243 244 244 244 247 248 249 250 252 253 255 256 259 264 267 271 273 275
255 258 255 249 250 248 221 192 204 189 160 146 153 170 177 176 173 175 192 208 222 224 223 227 230 234 230 225 224 220 218 209 202 209 219 223 223 229 237 237 236 242 248 247 248 246 242 240 218 212 217 210 206 207 214 219 220 225 227 228 231 233 236 238 242 245 245 244 244 244 244 246 248 250 251 252 252 254 255 255 258 261 264 267 269
257 258 254 248 246 235 223 210 198 190 179 169 162 167 179 177 171 177 191 199 210 213 210 210 208 208 210 213 213 218 223 207 207 222 225 225 227 235 238 241 235 230 237 237 242 249 246 244 224 208 219 214 208 198 207 216 217 221 224 227 230 232 234 236 239 242 243 245 245 244 245 246 248 251 252 253 253 253 254 255 256 257 258 261 263
260 257 253 245 237 228 227 225 198 190 189 175 158 151 164 169 164 162 164 176 189 189 187 187 185 187 194 205 209 216 222 216 217 219 218 217 225 237 225 227 234 228 233 229 230 240 239 242 230 205 210 218 221 206 202 213 217 219 222 227 229 232 235 234 235 237 239 243 246 247 249 249 250 251 253 254 253 253 253 253 253 255 257 257 259
258 256 251 241 232 224 221 222 208 199 199 177 152 142 152 152 143 147 159 172 181 179 181 186 188 196 201 211 218 216 215 219 222 219 218 214 219 230 220 220 231 228 227 220 226 235 228 236 229 206 207 211 225 219 202 203 218 220 221 227 227 233 236 228 228 234 237 242 248 251 252 252 252 252 253 254 253 252 252 251 251 252 254 256 258
255 258 253 242 233 228 221 214 209 204 198 171 152 156 159 146 136 145 164 173 175 177 187 191 190 211 225 229 235 221 215 220 223 226 227 224 225 232 234 234 237 237 233 221 227 235 227 232 218 201 207 206 219 224 201 188 216 221 218 223 224 233 237 229 228 239 242 248 253 254 254 255 256 256 256 256 255 253 251 250 250 250 251 253 255
251 256 253 243 236 235 231 215 202 197 186 158 149 163 165 151 142 147 163 173 177 184 195 198 197 229 247 252 253 241 242 242 235 237 237 238 239 239 246 250 249 246 238 230 229 231 234 235 219 206 206 205 212 221 205 189 199 210 216 224 226 236 241 234 232 241 238 242 248 252 257 258 260 263 260 258 256 255 253 251 251 252 251 251 252
245 248 250 248 250 243 228 215 199 191 181 157 152 164 169 161 154 155 165 175 182 194 207 215 218 236 253 262 263 253 253 252 245 244 236 240 244 241 246 254 260 253 237 235 229 224 233 228 215 205 195 202 213 213 211 203 192 189 204 219 225 237 245 239 221 227 217 223 239 248 252 254 256 259 257 255 254 253 251 249 250 251 252 252 252
238 242 249 250 253 242 218 215 210 203 188 168 160 166 171 164 162 168 174 179 187 205 221 232 236 237 245 255 261 259 254 247 246 246 235 235 241 245 252 258 263 256 240 233 222 216 222 214 205 198 193 205 216 213 209 211 204 194 197 205 215 229 236 225 214 211 197 202 224 240 242 244 247 248 249 249 249 248 247 246 246 248 250 251 252
239 242 248 247 245 233 218 218 218 218 201 179 166 167 175 168 165 172 180 190 196 212 230 244 250 244 242 249 255 259 259 255 253 259 258 248 246 250 254 252 251 248 239 228 215 208 210 206 199 197 203 209 208 208 212 212 208 210 210 200 205 224 224 217 219 217 204 198 210 229 236 237 239 241 243 243 243 243 241 242 244 246 249 250 250
245 245 250 248 240 228 220 214 216 219 204 183 169 166 174 169 166 170 174 181 182 199 234 253 254 246 233 238 255 261 259 258 256 264 269 261 257 255 252 249 248 248 238 221 208 205 205 204 201 200 204 204 200 202 209 207 202 218 233 214 202 212 215 217 222 222 216 207 207 220 234 239 239 240 241 241 244 246 245 246 249 249 250 250 250
248 249 251 246 238 232 220 210 214 215 199 180 168 164 169 167 164 159 157 158 153 144 121 147 258 224 194 190 249 265 252 246 249 254 266 269 264 259 255 250 246 249 234 211 207 209 205 202 204 204 202 199 200 202 199 200 204 221 239 232 221 214 212 214 213 217 221 215 215 224 235 240 239 240 243 247 256 265 262 260 259 256 253 254 254
249 251 246 240 236 232 220 207 207 206 196 179 166 161 163 160 149 142 138 130 117 106 90 70 61 60 68 83 70 281 219 217 235 235 256 276 242 243 251 252 249 246 225 210 214 212 205 198 193 198 201 199 202 206 202 202 210 218 227 237 244 233 232 233 212 204 215 219 220 221 227 235 236 240 247 258 274 275 270 268 267 266 263 261 260
249 249 241 236 231 226 219 207 198 196 191 176 164 159 158 151 139 132 122 109 103 100 89 72 62 60 61 67 65 60 73 133 194 196 199 123 192 220 232 248 261 252 231 217 215 211 207 201 196 199 203 204 208 211 210 213 219 220 228 240 236 202 230 255 247 215 206 209 216 216 218 227 229 231 237 247 255 258 264 268 270 272 269 269 268
248 247 241 234 227 221 214 200 190 189 185 171 162 157 154 147 137 128 113 105 100 93 83 73 64 60 60 60 61 66 63 62 79 109 107 97 179 236 239 256 264 262 248 225 219 218 215 211 208 207 203 205 213 213 214 224 230 230 238 244 231 204 228 249 260 255 229 211 223 229 224 229 227 219 222 233 244 253 258 258 263 269 269 271 272
244 245 241 233 222 210 198 190 185 184 178 167 159 156 152 145 137 127 117 109 99 89 79 72 67 61 58 54 56 61 62 62 69 74 83 97 156 249 268 271 253 256 257 235 225 225 222 219 216 212 209 213 219 218 219 226 227 233 245 249 240 242 246 244 252 267 267 246 236 239 226 227 235 232 228 227 233 244 250 251 253 259 264 265 264
241 244 242 235 219 197 183 180 179 178 173 165 159 154 151 144 136 131 126 117 102 92 81 72 67 62 57 53 53 54 56 60 58 57 63 73 91 232 259 266 250 245 256 247 234 230 226 223 219 214 215 220 222 222 224 221 216 230 248 254 247 241 245 244 237 244 260 261 250 241 211 207 224 237 231 220 219 223 234 247 248 248 255 258 259
238 238 238 236 224 194 174 173 177 177 173 169 163 156 151 145 140 138 136 124 104 92 86 78 68 61 55 51 50 48 48 50 49 49 52 56 58 78 241 273 267 241 246 249 243 234 228 223 219 217 217 220 226 230 231 222 220 237 248 250 249 248 248 245 236 232 240 249 257 250 203 190 214 216 202 197 202 207 220 239 245 246 253 258 265
234 235 234 234 227 194 169 171 179 177 174 173 168 159 151 146 144 142 134 118 102 94 90 80 62 52 46 43 43 40 39 41 42 42 38 39 45 60 82 280 266 252 244 240 245 244 237 227 222 223 222 225 231 236 239 233 230 239 244 243 247 257 258 245 236 238 237 243 257 257 211 188 204 169 162 185 192 201 217 230 240 252 260 265 268
232 236 234 226 216 192 172 174 179 176 175 176 171 161 151 145 142 135 127 118 111 108 91 69 43 26 22 21 26 28 29 32 35 34 27 20 24 39 54 178 231 244 246 236 243 248 246 240 231 227 226 230 234 238 241 238 233 235 239 249 259 262 266 245 225 229 235 239 249 258 261 211 176 131 147 180 183 188 213 231 247 260 268 270 270
230 237 236 222 204 188 174 175 179 179 180 178 168 161 153 144 139 133 128 127 119 108 73 25 357 350 353 355 3 13 19 24 27 26 24 16 11 12 7 356 234 225 228 233 242 245 244 241 234 229 229 231 234 238 241 240 237 233 229 236 254 262 261 242 225 228 230 229 237 253 272 261 121 105 124 145 154 167 209 245 261 272 279 278 278
230 233 231 214 194 183 172 174 182 179 181 178 166 166 165 150 145 148 141 141 134 110 330 331 332 331 338 345 353 0 6 13 15 15 18 16 8 1 357 349 327 231 212 218 228 237 242 243 241 236 232 231 231 232 237 241 237 231 228 225 233 252 255 246 244 243 223 209 219 229 229 215 152 125 138 144 158 189 219 252 272 284 288 288 288
228 228 224 207 190 183 169 172 183 179 179 176 167 175 180 162 155 164 160 161 172 196 294 320 328 330 339 346 350 352 353 352 347 347 353 1 2 357 351 346 347 82 175 190 204 219 232 240 246 244 239 238 238 233 231 237 233 223 223 221 217 230 242 243 244 240 223 209 213 214 204 199 210 214 216 248 267 243 245 252 277 293 291 290 291
226 226 222 212 193 182 172 172 180 179 179 176 172 179 183 171 167 177 177 177 198 248 296 318 328 336 342 343 345 345 344 341 333 325 322 326 341 348 343 337 343 29 166 176 189 202 215 228 237 242 243 241 241 238 230 234 236 224 221 218 219 224 232 238 233 225 223 212 207 205 199 203 214 218 227 269 295 298 292 286 289 296 295 292 294
220 216 212 201 175 172 174 173 175 180 183 184 183 185 190 184 180 185 191 196 215 256 291 313 327 334 337 340 343 344 343 339 328 319 310 301 303 325 330 322 326 325 183 185 197 203 209 222 227 233 241 240 238 235 229 230 230 233 234 224 226 222 216 222 217 212 217 209 195 194 196 200 207 211 213 227 261 288 299 303 304 314 323 315 317
206 200 199 189 174 179 181 175 177 185 187 192 198 200 204 204 197 195 199 210 226 256 283 306 321 326 331 337 341 342 339 332 320 312 305 292 277 286 309 311 312 307 214 194 203 212 221 227 221 220 230 234 233 234 235 232 223 226 224 203 208 207 195 201 203 202 207 204 191 185 183 182 194 213 223 238 255 269 290 311 328 5 12 337 330
Height
3140 3141 3141 3142 3142 3143 3144 3145 3145 3146 3147 3147 3148 3148 3148 3149 3149 3149 3149 3149 3150 3150 3150 3151 3151 3151 3152 3152 3152 3153 3153 3153 3154 3155 3155 3156 3157 3158 3159 3160 3161 3163 3164 3165 3166 3167 3167 3168 3168 3169 3169 3170 3170 3170 3170 3171 3171 3171 3171 3171 3171 3170 3170 3169 3169 3168 3167 3166 3166 3165 3165 3164 3164 3163 3162 3161 3160 3159 3158 3157 3156 3155 3155 3154 3154
3140 3140 3141 3141 3142 3143 3144 3144 3145 3146 3146 3147 3147 3147 3148 3148 3148 3148 3149 3149 3150 3150 3150 3150 3151 3151 3152 3152 3152 3153 3153 3154 3154 3155 3156 3156 3157 3158 3160 3161 3162 3163 3164 3165 3166 3167 3168 3168 3169 3170 3170 3171 3171 3171 3171 3172 3172 3172 3172 3172 3172 3172 3171 3171 3170 3170 3169 3168 3167 3167 3166 3166 3165 3165 3163 3162 3161 3160 3159 3159 3158 3157 3156 3156 3156
3139 3139 3140 3141 3142 3143 3143 3144 3144 3145 3146 3146 3146 3147 3147 3147 3147 3148 3148 3149 3149 3149 3150 3150 3151 3151 3152 3152 3153 3153 3154 3154 3155 3155 3156 3156 3157 3159 3160 3161 3162 3163 3164 3165 3166 3167 3168 3168 3169 3170 3171 3171 3172 3172 3172 3173 3173 3173 3173 3173 3173 3173 3172 3172 3172 3171 3170 3169 3169 3168 3167 3167 3167 3166 3165 3164 3163 3162 3161 3161 3160 3159 3158 3157 3157
3139 3140 3140 3141 3142 3142 3143 3143 3144 3144 3145 3145 3145 3146 3146 3146 3147 3147 3148 3148 3149 3149 3149 3150 3151 3151 3152 3152 3153 3153 3154 3154 3155 3155 3156 3157 3158 3159 3160 3161 3162 3163 3164 3165 3166 3167 3168 3169 3169 3170 3171 3172 3172 3173 3173 3173 3174 3174 3174 3174 3174 3174 3174 3173 3173 3172 3172 3171 3170 3169 3168 3169 3168 3168 3167 3167 3166 3165 3164 3163 3162 3161 3160 3160 3159
3139 3140 3140 3141 3141 3142 3142 3143 3143 3144 3144 3144 3144 3145 3145 3146 3146 3147 3147 3148 3148 3149 3149 3150 3151 3151 3152 3152 3153 3153 3154 3154 3155 3156 3156 3157 3158 3159 3159 3161 3162 3163 3164 3165 3166 3167 3168 3169 3170 3171 3172 3172 3173 3173 3174 3174 3174 3175 3175 3175 3175 3175 3174 3174 3174 3174 3174 3173 3172 3171 3170 3170 3170 3170 3169 3169 3168 3167 3166 3165 3164 3163 3163 3162 3162
3139 3139 3140 3141 3141 3141 3142 3142 3143 3143 3143 3143 3143 3144 3144 3145 3146 3146 3147 3147 3148 3149 3149 3150 3151 3151 3152 3152 3153 3153 3154 3154 3155 3156 3157 3157 3158 3159 3159 3160 3161 3163 3164 3165 3166 3167 3168 3169 3170 3171 3172 3173 3173 3174 3174 3175 3175 3175 3175 3176 3176 3175 3175 3175 3175 3175 3175 3174 3173 3172 3171 3172 3171 3171 3171 3170 3170 3169 3168 3167 3167 3166 3165 3164 3164
3139 3139 3140 3141 3141 3141 3141 3142 3142 3142 3142 3142 3143 3143 3144 3145 3145 3146 3146 3147 3148 3148 3149 3150 3151 3151 3151 3152 3152 3153 3154 3155 3155 3156 3157 3157 3158 3159 3159 3160 3161 3162 3164 3165 3166 3167 3168 3169 3170 3171 3172 3173 3174 3174 3175 3175 3175 3176 3176 3176 3176 3176 3176 3176 3176 3176 3175 3175 3174 3172 3173 3174 3173 3173 3173 3172 3172 3171 3170 3170 3169 3168 3167 3167 3166
3138 3139 3140 3140 3140 3141 3141 3141 3141 3141 3141 3141 3142 3143 3143 3144 3145 3146 3146 3147 3147 3148 3149 3150 3150 3151 3151 3152 3152 3153 3154 3155 3155 3156 3157 3157 3158 3158 3159 3160 3161 3162 3164 3165 3166 3167 3168 3169 3170 3171 3172 3173 3174 3175 3175 3176 3176 3176 3176 3177 3177 3177 3177 3177 3177 3177 3177 3176 3174 3174 3175 3175 3175 3175 3174 3174 3173 3173 3172 3172 3171 3170 3170 3169 3169
3138 3139 3140 3140 3140 3140 3140 3140 3140 3140 3140 3141 3141 3142 3143 3143 3144 3145 3146 3146 3147 3148 3149 3150 3150 3151 3151 3152 3152 3153 3154 3155 3155 3156 3156 3157 3158 3158 3159 3160 3161 3162 3164 3165 3166 3167 3169 3170 3170 3171 3172 3173 3174 3175 3176 3176 3176 3177 3177 3177 3177 3178 3178 3177 3177 3177 3178 3176 3175 3176 3177 3177 3176 3176 3176 3176 3175 3175 3174 3173 3173 3172 3172 3171 3171
3138 3138 3139 3139 3139 3139 3139 3139 3139 3139 3139 3140 3140 3141 3142 3143 3143 3144 3145 3146 3147 3147 3148 3149 3150 3151 3151 3152 3152 3153 3154 3155 3155 3156 3156 3157 3157 3158 3159 3160 3161 3162 3164 3165 3166 3167 3168 3170 3171 3171 3172 3173 3174 3175 3176 3176 3177 3177 3178 3178 3178 3178 3178 3178 3178 3178 3178 3177 3177 3178 3178 3178 3178 3178 3178 3177 3177 3177 3176 3175 3175 3174 3174 3173 3173
3137 3138 3138 3139 3139 3138 3138 3138 3138 3138 3139 3139 3140 3141 3141 3142 3143 3144 3144 3145 3146 3147 3148 3149 3150 3150 3151 3152 3153 3154 3154 3155 3156 3156 3156 3157 3157 3158 3159 3160 3161 3162 3164 3165 3166 3167 3168 3169 3171 3171 3172 3173 3174 3175 3176 3177 3177 3178 3178 3178 3178 3178 3178 3179 3179 3179 3178 3178 3179 3179 3179 3179 3179 3179 3179 3179 3179 3178 3177 3177 3177 3176 3176 3175 3175
3137 3138 3138 3138 3138 3137 3137 3137 3137 3138 3138 3139 3140 3140 3141 3142 3142 3143 3144 3145 3146 3147 3148 3149 3149 3150 3151 3152 3153 3154 3155 3156 3156 3156 3157 3158 3158 3158 3159 3160 3161 3162 3163 3165 3166 3166 3167 3169 3170 3171 3172 3173 3174 3175 3176 3177 3178 3178 3179 3179 3179 3179 3179 3179 3180 3179 3178 3179 3179 3180 3180 3180 3180 3180 3180 3180 3180 3179 3179 3179 3179 3178 3178 3177 3177
3137 3137 3137 3137 3137 3137 3137 3136 3136 3137 3137 3138 3139 3140 3141 3142 3143 3144 3145 3146 3147 3148 3148 3149 3149 3150 3151 3153 3154 3154 3155 3156 3156 3157 3157 3158 3159 3159 3159 3160 3161 3162 3163 3165 3166 3166 3167 3168 3170 3170 3171 3173 3174 3175 3176 3177 3178 3178 3179 3179 3179 3179 3180 3180 3180 3180 3179 3180 3180 3180 3180 3181 3181 3181 3181 3181 3181 3181 3181 3181 3180 3180 3180 3179 3179
3136 3136 3136 3136 3136 3136 3135 3135 3136 3136 3137 3138 3139 3140 3141 3142 3143 3144 3145 3146 3147 3148 3148 3148 3149 3150 3151 3153 3154 3154 3155 3156 3156 3157 3158 3159 3159 3160 3160 3160 3161 3162 3163 3164 3165 3166 3167 3169 3170 3171 3172 3173 3174 3175 3176 3177 3178 3178 3179 3179 3180 3180 3180 3180 3181 3180 3180 3181 3181 3181 3181 3181 3182 3182 3182 3182 3182 3182 3182 3182 3182 3181 3181 3181 3180
3135 3135 3135 3135 3135 3134 3134 3134 3135 3136 3136 3137 3138 3140 3141 3142 3143 3144 3145 3146 3147 3148 3148 3148 3149 3150 3151 3152 3153 3153 3154 3155 3156 3157 3158 3159 3159 3160 3160 3160 3161 3161 3162 3163 3164 3166 3167 3168 3170 3171 3172 3173 3174 3175 3176 3177 3178 3178 3179 3179 3180 3180 3181 3181 3181 3181 3180 3181 3181 3181 3182 3182 3182 3183 3183 3183 3183 3183 3183 3183 3183 3183 3183 3182 3182
3134 3134 3134 3134 3133 3133 3133 3134 3134 3135 3135 3136 3138 3140 3141 3141 3142 3144 3145 3146 3147 3147 3147 3148 3149 3150 3151 3152 3152 3153 3154 3155 3157 3157 3158 3159 3159 3159 3160 3160 3160 3161 3161 3163 3164 3165 3166 3168 3169 3170 3171 3172 3173 3175 3176 3177 3177 3178 3179 3179 3180 3180 3181 3181 3181 3181 3181 3181 3182 3182 3182 3182 3183 3183 3183 3184 3184 3184 3184 3184 3184 3184 3184 3184 3183
3133 3134 3133 3132 3132 3132 3133 3133 3134 3133 3134 3137 3139 3140 3140 3141 3142 3143 3143 3144 3145 3147 3148 3149 3149 3150 3151 3152 3153 3153 3154 3156 3157 3157 3158 3158 3158 3159 3159 3160 3160 3161 3161 3162 3163 3164 3166 3167 3168 3169 3170 3172 3173 3174 3175 3176 3177 3178 3178 3179 3179 3180 3181 3181 3181 3181 3181 3181 3182 3183 3183 3183 3183 3184 3184 3184 3185 3185 3185 3185 3185 3185 3185 3185 3185
3132 3132 3132 3131 3131 3132 3132 3133 3133 3132 3134 3138 3139 3139 3140 3141 3141 3142 3143 3143 3143 3145 3147 3148 3149 3150 3151 3153 3153 3154 3155 3155 3156 3156 3157 3158 3158 3158 3159 3160 3160 3161 3161 3162 3162 3163 3165 3166 3167 3168 3169 3171 3172 3173 3174 3175 3176 3177 3178 3178 3179 3179 3180 3180 3181 3181 3181 3181 3183 3183 3183 3183 3184 3184 3184 3185 3185 3185 3185 3185 3186 3186 3186 3186 3186
3131 3131 3131 3131 3131 3131 3132 3132 3132 3132 3135 3138 3138 3139 3140 3141 3141 3142 3143 3143 3143 3144 3145 3146 3148 3150 3151 3152 3152 3153 3154 3153 3153 3153 3155 3156 3157 3158 3159 3159 3160 3161 3161 3162 3162 3163 3163 3165 3166 3167 3168 3170 3171 3172 3173 3174 3175 3176 3177 3178 3178 3179 3179 3180 3180 3180 3181 3182 3182 3183 3183 3183 3184 3184 3184 3185 3185 3185 3186 3186 3186 3186 3186 3186 3186
3131 3131 3131 3131 3130 3131 3131 3130 3131 3133 3135 3137 3138 3139 3140 3141 3141 3141 3143 3143 3144 3144 3145 3146 3148 3150 3151 3151 3152 3152 3153 3153 3153 3154 3155 3157 3157 3158 3159 3159 3160 3160 3161 3161 3162 3162 3163 3164 3165 3166 3167 3169 3170 3171 3172 3173 3174 3175 3176 3177 3177 3178 3178 3179 3179 3179 3181 3182 3182 3183 3183 3183 3184 3184 3184 3185 3185 3185 3186 3186 3186 3186 3186 3187 3187
3130 3131 3131 3130 3130 3130 3130 3129 3132 3134 3134 3136 3138 3139 3140 3140 3140 3141 3142 3143 3144 3144 3146 3147 3148 3150 3151 3152 3153 3153 3154 3155 3156 3157 3159 3159 3159 3159 3159 3159 3159 3160 3160 3160 3161 3162 3162 3163 3163 3164 3166 3167 3169 3170 3171 3173 3174 3175 3176 3176 3177 3177 3177 3178 3178 3178 3181 3182 3182 3183 3183 3183 3183 3183 3184 3184 3185 3185 3185 3186 3186 3186 3186 3187 3187
3130 3131 3131 3130 3129 3129 3129 3131 3134 3135 3135 3136 3138 3138 3139 3140 3140 3141 3141 3143 3144 3145 3147 3148 3149 3150 3151 3152 3153 3153 3154 3155 3155 3157 3158 3160 3160 3159 3159 3159 3159 3159 3159 3160 3160 3161 3162 3162 3162 3163 3164 3166 3168 3169 3171 3172 3173 3174 3175 3175 3176 3176 3176 3176 3177 3178 3180 3181 3181 3181 3182 3182 3182 3182 3183 3183 3184 3184 3185 3185 3185 3186 3186 3186 3187
3130 3132 3130 3127 3128 3130 3130 3131 3134 3136 3136 3136 3137 3137 3138 3139 3139 3140 3141 3143 3145 3147 3148 3148 3149 3150 3151 3151 3152 3152 3152 3153 3154 3156 3157 3159 3160 3159 3159 3159 3159 3159 3159 3159 3160 3160 3161 3161 3162 3162 3164 3165 3167 3168 3170 3171 3172 3173 3174 3174 3175 3175 3175 3175 3176 3177 3179 3180 3180 3180 3181 3181 3181 3182 3182 3182 3183 3184 3184 3184 3185 3185 3186 3186 3186
3131 3131 3128 3127 3129 3131 3130 3131 3133 3134 3135 3136 3136 3137 3138 3139 3139 3140 3141 3143 3145 3146 3147 3147 3148 3149 3150 3150 3151 3151 3152 3152 3154 3155 3156 3158 3158 3158 3158 3158 3159 3159 3158 3159 3159 3159 3159 3160 3161 3162 3163 3164 3165 3167 3168 3170 3171 3172 3172 3173 3174 3174 3175 3174 3174 3175 3177 3179 3179 3179 3179 3180 3180 3181 3181 3182 3182 3183 3183 3184 3184 3185 3185 3186 3186
3130 3129 3129 3130 3131 3131 3131 3131 3131 3132 3133 3134 3136 3136 3137 3138 3139 3140 3141 3143 3145 3146 3146 3147 3147 3148 3148 3150 3150 3151 3151 3151 3153 3154 3155 3156 3157 3157 3158 3158 3159 3159 3159 3159 3159 3158 3158 3159 3159 3161 3162 3163 3164 3165 3167 3168 3169 3170 3171 3172 3173 3174 3174 3173 3173 3174 3176 3178 3177 3178 3178 3179 3179 3180 3180 3181 3182 3182 3183 3183 3183 3184 3184 3185 3185
3128 3128 3130 3131 3131 3131 3131 3131 3131 3132 3132 3133 3135 3136 3137 3138 3139 3141 3142 3143 3144 3145 3145 3146 3146 3147 3149 3149 3150 3150 3151 3151 3152 3153 3154 3155 3155 3156 3157 3157 3158 3159 3159 3160 3159 3158 3158 3159 3159 3160 3160 3162 3163 3164 3166 3166 3168 3169 3170 3171 3172 3172 3172 3172 3172 3172 3175 3176 3176 3176 3177 3177 3178 3178 3179 3180 3181 3181 3182 3182 3183 3183 3184 3184 3184
3127 3127 3129 3129 3130 3131 3131 3131 3131 3132 3133 3134 3135 3135 3136 3138 3140 3141 3142 3142 3143 3144 3144 3145 3146 3147 3148 3149 3149 3150 3151 3151 3152 3153 3154 3154 3154 3155 3155 3156 3156 3157 3157 3159 3160 3160 3160 3161 3161 3161 3161 3160 3161 3162 3164 3165 3167 3168 3169 3170 3170 3171 3170 3169 3170 3171 3173 3174 3175 3175 3175 3176 3176 3177 3178 3179 3180 3180 3181 3181 3182 3182 3183 3183 3183
3126 3126 3127 3128 3129 3130 3130 3130 3131 3132 3133 3134 3134 3135 3136 3138 3139 3140 3141 3141 3142 3142 3144 3145 3145 3146 3147 3147 3148 3149 3150 3150 3151 3152 3153 3153 3153 3154 3155 3155 3155 3155 3156 3158 3159 3160 3160 3160 3161 3162 3161 3161 3160 3160 3162 3164 3165 3166 3167 3168 3169 3169 3167 3167 3169 3170 3171 3172 3173 3174 3174 3175 3175 3176 3177 3178 3179 3179 3180 3180 3181 3181 3182 3182 3182
3125 3125 3126 3127 3127 3128 3130 3130 3131 3132 3132 3133 3134 3135 3136 3137 3139 3140 3140 3140 3140 3142 3143 3144 3144 3145 3145 3146 3147 3148 3149 3150 3150 3151 3151 3152 3152 3153 3154 3154 3154 3154 3156 3157 3158 3158 3159 3159 3159 3160 3161 3161 3160 3159 3160 3162 3164 3165 3166 3166 3168 3167 3163 3164 3166 3167 3169 3170 3172 3173 3173 3174 3175 3176 3176 3177 3178 3178 3179 3179 3179 3180 3180 3181 3181
3124 3124 3125 3126 3127 3128 3130 3130 3131 3131 3132 3133 3134 3135 3135 3136 3138 3139 3140 3139 3140 3141 3142 3143 3143 3143 3144 3145 3147 3149 3150 3150 3151 3151 3151 3151 3151 3151 3152 3153 3153 3154 3155 3156 3156 3157 3158 3158 3158 3159 3159 3160 3160 3160 3159 3160 3162 3164 3165 3165 3166 3164 3158 3160 3164 3166 3168 3170 3171 3172 3173 3174 3174 3175 3175 3176 3177 3177 3177 3177 3178 3178 3179 3180 3180
3123 3123 3124 3124 3125 3128 3130 3130 3131 3131 3132 3133 3134 3134 3135 3136 3138 3139 3139 3139 3140 3141 3141 3142 3143 3143 3143 3145 3146 3148 3149 3150 3150 3150 3149 3150 3150 3149 3150 3151 3152 3154 3154 3155 3155 3155 3157 3157 3157 3158 3158 3159 3160 3160 3159 3159 3161 3163 3164 3164 3165 3161 3154 3159 3166 3168 3170 3171 3171 3171 3172 3173 3173 3174 3174 3175 3175 3175 3176 3176 3176 3177 3177 3178 3179
3123 3123 3122 3122 3124 3127 3128 3129 3130 3130 3131 3133 3134 3134 3135 3136 3138 3139 3139 3140 3140 3141 3141 3142 3143 3142 3142 3143 3145 3146 3147 3148 3148 3148 3148 3149 3149 3149 3149 3150 3151 3153 3153 3154 3154 3155 3155 3155 3156 3156 3157 3158 3159 3160 3160 3159 3159 3162 3163 3162 3162 3157 3154 3162 3168 3169 3170 3170 3170 3171 3171 3172 3172 3172 3173 3173 3173 3174 3174 3175 3175 3175 3176 3177 3177
3123 3122 3121 3121 3123 3124 3125 3127 3128 3129 3131 3133 3134 3134 3134 3136 3137 3138 3139 3140 3140 3140 3141 3142 3143 3142 3142 3142 3143 3144 3145 3146 3147 3147 3147 3148 3148 3149 3150 3151 3151 3151 3152 3152 3153 3154 3154 3154 3155 3156 3157 3158 3158 3160 3161 3160 3159 3160 3161 3161 3160 3156 3157 3165 3168 3167 3168 3169 3170 3170 3170 3170 3170 3170 3170 3171 3171 3172 3173 3173 3174 3174 3175 3175 3176
3123 3122 3121 3121 3122 3122 3124 3126 3127 3128 3131 3133 3134 3134 3135 3136 3137 3137 3138 3139 3140 3141 3141 3141 3142 3142 3142 3142 3142 3143 3144 3145 3146 3146 3147 3148 3148 3149 3150 3150 3149 3149 3150 3151 3152 3153 3153 3154 3155 3156 3157 3158 3158 3160 3160 3160 3160 3160 3159 3158 3157 3156 3159 3164 3165 3166 3167 3168 3168 3168 3168 3169 3168 3168 3169 3169 3170 3170 3171 3171 3172 3173 3173 3174 3175
3122 3122 3121 3120 3121 3122 3124 3126 3127 3127 3130 3133 3134 3135 3135 3136 3137 3137 3138 3139 3140 3140 3140 3141 3141 3141 3142 3142 3143 3143 3143 3144 3145 3145 3146 3147 3147 3148 3149 3148 3148 3148 3149 3150 3152 3152 3152 3154 3155 3155 3156 3158 3159 3159 3159 3159 3160 3160 3159 3157 3156 3157 3160 3162 3163 3165 3166 3167 3167 3166 3167 3167 3167 3167 3167 3168 3168 3168 3169 3170 3171 3171 3172 3173 3173
3121 3121 3120 3120 3121 3123 3125 3126 3126 3126 3130 3133 3134 3135 3135 3136 3137 3137 3138 3139 3139 3140 3140 3140 3140 3140 3141 3142 3142 3142 3143 3143 3144 3145 3145 3146 3147 3147 3147 3147 3147 3147 3148 3149 3150 3151 3152 3153 3154 3155 3156 3157 3158 3158 3158 3159 3160 3160 3161 3160 3157 3156 3159 3161 3163 3164 3165 3166 3166 3166 3166 3166 3166 3166 3166 3167 3167 3168 3169 3169 3170 3170 3171 3171 3172
3119 3120 3119 3119 3121 3123 3124 3126 3125 3126 3129 3132 3134 3135 3135 3136 3137 3138 3138 3139 3140 3140 3141 3140 3140 3140 3141 3141 3141 3141 3142 3142 3143 3144 3144 3145 3146 3146 3145 3146 3146 3146 3147 3148 3149 3150 3151 3152 3153 3154 3155 3156 3157 3157 3158 3159 3159 3159 3161 3161 3160 3159 3158 3159 3162 3164 3165 3165 3166 3166 3166 3166 3166 3166 3166 3167 3168 3168 3169 3169 3169 3169 3169 3170 3170
3118 3118 3118 3118 3120 3122 3123 3124 3124 3125 3129 3132 3134 3135 3136 3137 3138 3139 3139 3140 3140 3141 3141 3141 3141 3140 3140 3141 3141 3141 3141 3141 3142 3142 3143 3144 3145 3145 3144 3145 3145 3146 3147 3148 3149 3149 3150 3151 3152 3153 3155 3155 3156 3156 3157 3158 3158 3159 3160 3160 3162 3163 3161 3160 3163 3165 3165 3165 3165 3164 3165 3165 3165 3165 3167 3168 3168 3168 3167 3168 3168 3168 3168 3168 3169
3116 3116 3116 3117 3119 3120 3122 3123 3123 3126 3129 3132 3134 3135 3136 3137 3138 3139 3140 3141 3141 3141 3142 3142 3141 3141 3141 3141 3141 3141 3140 3140 3140 3141 3142 3143 3144 3144 3144 3145 3145 3145 3146 3147 3148 3149 3150 3151 3152 3153 3154 3154 3155 3156 3157 3157 3158 3159 3159 3160 3163 3165 3163 3161 3162 3163 3163 3164 3164 3163 3164 3165 3165 3166 3167 3168 3167 3166 3167 3167 3167 3167 3167 3167 3167
3114 3114 3114 3115 3117 3119 3121 3122 3124 3126 3128 3131 3133 3135 3136 3137 3138 3139 3140 3141 3142 3142 3142 3142 3142 3142 3142 3142 3141 3141 3140 3140 3140 3141 3142 3143 3142 3142 3143 3144 3145 3145 3146 3147 3148 3148 3149 3150 3151 3152 3152 3153 3154 3155 3156 3156 3158 3159 3158 3159 3161 3163 3162 3160 3160 3159 3160 3162 3163 3164 3165 3164 3164 3166 3167 3167 3166 3166 3167 3167 3166 3166 3166 3165 3166
3112 3112 3112 3112 3114 3117 3120 3121 3123 3125 3127 3131 3133 3135 3136 3138 3139 3140 3141 3142 3142 3143 3143 3143 3143 3143 3143 3143 3142 3141 3141 3140 3140 3141 3142 3143 3142 3142 3142 3143 3144 3145 3145 3147 3148 3148 3148 3149 3150 3151 3151 3152 3153 3154 3155 3155 3157 3158 3158 3157 3159 3160 3160 3160 3160 3158 3157 3158 3160 3163 3165 3164 3164 3165 3166 3166 3166 3166 3166 3166 3165 3165 3164 3165 3165
3111 3111 3110 3109 3111 3114 3116 3120 3123 3125 3127 3130 3132 3134 3136 3138 3139 3141 3141 3142 3143 3143 3143 3144 3144 3144 3143 3143 3143 3142 3142 3141 3141 3141 3142 3143 3143 3143 3142 3142 3143 3144 3145 3146 3147 3147 3147 3148 3149 3150 3150 3151 3152 3153 3154 3155 3155 3157 3158 3158 3158 3159 3158 3159 3160 3158 3157 3157 3157 3161 3164 3164 3164 3165 3165 3165 3165 3165 3165 3165 3165 3164 3164 3164 3164
3110 3110 3108 3108 3112 3114 3115 3119 3122 3124 3127 3129 3131 3133 3136 3138 3139 3140 3142 3143 3143 3144 3144 3144 3144 3144 3144 3144 3143 3143 3143 3142 3141 3141 3141 3142 3143 3143 3142 3142 3142 3143 3144 3145 3146 3147 3147 3148 3149 3149 3149 3150 3150 3151 3153 3154 3155 3156 3158 3158 3157 3157 3157 3157 3158 3158 3158 3157 3156 3159 3162 3162 3163 3163 3164 3164 3163 3164 3164 3164 3164 3164 3164 3164 3164
3108 3108 3107 3107 3111 3113 3114 3118 3122 3124 3127 3129 3131 3133 3135 3137 3139 3141 3142 3143 3144 3144 3144 3145 3145 3145 3144 3144 3144 3144 3143 3143 3142 3142 3141 3141 3142 3142 3141 3141 3141 3142 3143 3144 3145 3145 3145 3147 3147 3148 3148 3149 3149 3150 3151 3153 3154 3155 3157 3157 3156 3156 3156 3157 3157 3157 3157 3156 3156 3158 3160 3160 3161 3162 3163 3162 3162 3162 3163 3163 3163 3163 3163 3164 3164
3108 3107 3105 3105 3108 3111 3113 3117 3121 3124 3126 3129 3132 3134 3135 3137 3139 3141 3142 3143 3144 3144 3145 3145 3145 3145 3145 3144 3144 3144 3144 3143 3143 3142 3141 3141 3141 3141 3141 3141 3141 3141 3142 3143 3143 3143 3144 3145 3146 3147 3147 3148 3149 3150 3150 3152 3153 3154 3155 3155 3154 3155 3156 3156 3156 3156 3156 3156 3156 3157 3158 3159 3161 3162 3162 3162 3162 3162 3162 3163 3163 3163 3163 3163 3163
3107 3105 3102 3103 3107 3111 3114 3118 3122 3124 3127 3129 3132 3134 3135 3136 3139 3141 3142 3143 3143 3144 3145 3145 3145 3145 3144 3144 3144 3144 3143 3143 3143 3142 3142 3141 3140 3140 3140 3141 3141 3141 3141 3142 3142 3142 3143 3144 3145 3146 3147 3147 3148 3149 3150 3151 3152 3152 3154 3153 3153 3154 3155 3156 3156 3156 3155 3156 3156 3156 3157 3158 3159 3161 3162 3161 3161 3161 3161 3162 3162 3162 3162 3162 3162
3106 3103 3100 3103 3109 3112 3115 3120 3123 3125 3128 3130 3132 3134 3135 3135 3138 3140 3141 3142 3143 3144 3144 3144 3144 3144 3144 3144 3143 3143 3143 3142 3142 3142 3141 3141 3140 3140 3139 3139 3140 3140 3141 3141 3141 3141 3142 3143 3144 3145 3146 3147 3147 3148 3148 3150 3150 3151 3152 3152 3152 3153 3154 3155 3155 3154 3155 3156 3156 3156 3157 3158 3159 3160 3161 3161 3160 3160 3161 3162 3161 3161 3161 3161 3161
3103 3102 3102 3108 3114 3116 3118 3122 3125 3126 3128 3130 3131 3134 3135 3135 3137 3139 3140 3141 3142 3143 3143 3143 3143 3143 3144 3144 3143 3143 3142 3142 3141 3141 3141 3140 3140 3139 3139 3138 3139 3139 3140 3140 3140 3141 3141 3142 3143 3143 3144 3145 3146 3147 3147 3148 3149 3150 3150 3150 3151 3151 3152 3153 3153 3153 3154 3155 3156 3157 3157 3157 3158 3159 3159 3159 3159 3160 3161 3161 3161 3161 3161 3161 3161
3102 3103 3106 3111 3116 3119 3120 3122 3125 3127 3128 3130 3132 3134 3135 3135 3136 3138 3140 3141 3142 3142 3142 3143 3143 3143 3143 3143 3143 3142 3141 3141 3140 3140 3140 3139 3139 3138 3138 3138 3138 3138 3139 3139 3140 3140 3140 3141 3142 3142 3143 3144 3145 3145 3146 3146 3147 3148 3149 3149 3150 3150 3151 3152 3152 3152 3154 3154 3156 3156 3157 3157 3158 3158 3158 3158 3158 3158 3159 3160 3161 3161 3160 3160 3160
3101 3104 3108 3113 3116 3119 3121 3123 3126 3128 3130 3132 3133 3134 3135 3135 3136 3138 3139 3140 3141 3141 3142 3142 3142 3143 3143 3142 3142 3141 3141 3140 3139 3139 3138 3138 3138 3137 3137 3137 3137 3137 3137 3138 3139 3139 3139 3140 3140 3141 3142 3143 3144 3144 3144 3145 3146 3146 3147 3149 3149 3149 3150 3151 3151 3152 3153 3154 3155 3155 3156 3157 3157 3158 3158 3158 3158 3158 3158 3159 3159 3160 3159 3159 3159
3101 3106 3112 3115 3116 3118 3120 3122 3125 3128 3130 3131 3132 3132 3133 3135 3136 3137 3138 3139 3140 3140 3141 3141 3142 3142 3142 3142 3141 3141 3140 3139 3138 3137 3137 3136 3136 3136 3136 3136 3136 3136 3136 3137 3138 3138 3138 3138 3139 3140 3141 3142 3143 3143 3143 3144 3145 3145 3146 3148 3148 3148 3149 3151 3152 3152 3153 3153 3154 3154 3155 3156 3157 3157 3157 3157 3157 3157 3158 3158 3158 3158 3159 3158 3158